Retour au catalogue

CZ-6A DEB

ActifPO
NORAD 61826·DEBRIS·🇨🇳 China

Lancé Aug 6, 2024 depuis Taiyuan Satellite Launch Center

Loading…

Prochains Passages (prochaines 24 heures)

TLE

FraisSource: Space-Track

Époque: Sep 14, 2026, 07:12 UTC

1 61826U 24140ACS 26257.30024336  .00000639  00000-0  24360-3 0  9993
2 61826  89.0384 267.2822 0019808 154.9708 205.2453 14.29565406104644

Suivez CZ-6A DEB en temps réel avec AllMySat

Download on the App Store